Погода в Жарыке

Погода в Жарыке : погода сейчас, прогноз погоды и архив. Всё, что Вы хотите узнать о погоде в Жарыке!

Поиск расширенной информации на нашем сайте:

Другие новости

Новости СМИ2

Главная страница сайта

Новости сайта

03.07.2017

Напоминаем, что на нашем специализированном сайте Метеоцентр.Азия вы можете получить высокодетализированные автоматические прогнозы погоды по пунктам России, СНГ и мира в авиационном формате (включающие направление и скорость ветра, видимость, явления погоды, количество и форму облачности, нижнюю и верхнюю границу облачности).

Рекомендуем: Комерческая недвижимость в крыму продажа коммерческой недвижимости в крыму.

Погода в Жарыке - сегодня

Время (UTC), дата Ветер
(°,м/с) 
Видим.   Явления Облачность Т
(°С)
Тd
(°С)
f(%) Тe
(°С)
Pmin
(гПа)
dP
(гПа)
Po
(мм)
O2
(г/м3)
Тmin Tmax R s Состояние
почвы
18 18.01.18 тихо ()   н/о    4/0 средняя 
[Ac lent]
-16.3 -23.9 52 -16  1035.5  -0.5  712  307    -7.8       
21 18.01.18 070 (В) н/о    ясно 
-16.2 -23.4 54 -19  1034.7  -0.7  712  306           
00 19.01.18 070 (В) н/о    ясно 
-10.8 -20.7 44 -13  1032.1  -0.7  711  300           
03 19.01.18 070 (В) 20000 м    10/10 600 м 
[Sc]
-9.5 -16.8 55 -9  1031.5  -0.2  711  298  -16.7      29  неравномерный
сухой снег
100% 
06 19.01.18 090 (В) 20000 м    8/8 1000 м 
[Sc]
-6.3 -14.7 51 -9  1031.3  0.8  712  295  -16.7         
09 19.01.18 тихо ()   20000 м    9/0 верхняя 
[Ci sp]
-4 -14.1 45 -4  1030.6  712  292           
12 19.01.18 070 (В) 20000 м    10/10 600 м 
[Sc]
-6 -11.6 65 -6  1032.1  0.9  713  295           
15 19.01.18 020 (С) н/о    10/10 600 м 
[Sc]
-8 -12 73 -10  1033.4  0.6  713  297    -4       
18 19.01.18 тихо ()   н/о    ясно 
-12.7 -15 83 -13  1035.2  0.2  713  303    -4       
21 19.01.18 тихо ()   н/о    ясно 
-14.9 -17.1 83 -15  1035.8  -0.2  713  305           
00 20.01.18 тихо ()   н/о    ясно 
-17.7 -19.7 84 -18  1037.6  0.8  714  309           
03 20.01.18 050 (СВ) 20000 м    ясно 
-10 -15.8 63 -10  1034.3  -0.6  713  299  -17.7      29  неравномерный
сухой снег
100% 
06 20.01.18 050 (СВ) 20000 м    ясно 
-7 -14.7 54 -7  1033.6  0.2  713  296  -17.7         
09 20.01.18 050 (СВ) 20000 м    ясно 
-5.9 -14 53 -6  1032.9  -0.3  713  295           
12 20.01.18 050 (СВ) 20000 м    ясно 
-6.8 -12.8 62 -6  1033.2  713  296           
15 20.01.18 090 (В) н/о    ясно 
-10.4 -15.5 66 -10  1034.2  -0.1  713  300    -5.5       
18 20.01.18 070 (В) н/о    ясно 
-10.8 -15.9 66 -13  1033.4  -0.9  712  300    -5.5       
21 20.01.18 070 (В) н/о    ясно 
-12.2 -16.6 70 -14  1033.9  712  302           
00 21.01.18 070 (В) н/о    ясно 
-12.6 -17.3 68 -13  1033.1  -0.8  712  302           
03 21.01.18 070 (В) 20000 м    ясно 
-11.4 -17.4 61 -15  1032.7  712  301        29  неравномерный
сухой снег
100% 
06 21.01.18 070 (В) 20000 м    ясно 
-8.9 -15.9 57 -12  1032.5  0.5  712  298  -12.6         
09 21.01.18 070 (В) 20000 м    ясно 
-8.8 -15.7 57 -12  1031.8  -0.6  712  298           
12 21.01.18 070 (В) 20000 м    8/0 верхняя 
[Ci sp]
-11.2 -16.9 63 -14  1032.1  -0.4  711  300           
15 21.01.18 050 (СВ) н/о    3/0 верхняя 
[Ci sp]
-11 -16.5 64 -13  1032.5  0.4  712  300    -8.8       
18 21.01.18 070 (В) н/о    8/0 средняя 
[Ac lent]
-11.4 -16.5 66 -16  1032.6  712  300    -8.8       
Время (UTC), дата Ветер
(°,м/с) 
Видим.   Явления Облачность Т
(°С)
Тd
(°С)
f(%) Тe
(°С)
Pmin
(гПа)
dP
(гПа)
Po
(мм)
O2
(г/м3)
Тmin Tmax R s Состояние
почвы

Для получения пояснительной информации подведите курсор к названию столбца.

ПОГОДА в Жарыке - архив

Всё, что Вы хотите узнать о погоде в Жарыке - удобно и подробно!

Выберите нужную дату (начиная с 1 января 2015* года) и нажмите кнопку "Найти".
Будут отображены архивные сводки погоды по пункту Жарык, начиная с указанной даты.


Отображать данные в формате CSV (для использования в таблицах Excel)


Внимание! Наш архив погоды предназначен исключительно для личного некоммерческого использования в познавательных целях. Если Вам необходимы официальные справки о состоянии погоды (для производственных, юридических, коммерческих и т.п. целей), обращайтесь в органы Росгидромета.

*Примечание: данная дата относится к архиву по метеостанциям СССР (Россия, СНГ, Балтия).
Архив по метеостанциям Зарубежной Европы и Азии (кроме Китая) хранится 10 дней, по другим регионам земного шара (Китай, Африка, Америка, Австралия, Океания) - 1 день.

Жарык - район местоположения метеостанции


Название, широта, долгота, высота метеостанции:
Жарык 48.9°ш. 72.9°д. 656 м над ур. моря [Казахстан]

Дополнительная информация

В oтличие oт бoльшинства пoгoдных сайтoв мы публикуем пoдрoбную метеoинфoрмацию в детальнoм прoфессиoнальнoм фoрмате.

Характеристики температуры и влажнoсти вoздуха измеряются на высoте 2 м в тени вдали oт зданий и деревьев.
Скoрoсть ветра измеряется на высoте 10 м (на урoвне рoста челoвека скoрoсть ветра ниже в 1.5-2 раза). Если метеoстанция нахoдится в гoрoде или в лесу, тo скoрoсть ветра занижена на 2-4 м/с пo сравнению с oткрытым местoм. Скoрoсть ветра над акватoриями крупных рек и oзёр, а также на вершинах хoлмoв на 2-5 м/с выше, чем в oбычных услoвиях.
Атмoсфернoе давление в разных тoчках местнoсти мoжет значительнo oтличаться oт давления на метеoстанции, в зависимoсти oт услoвий рельефа (при пoдъёме на 10 м давление пoнижается примернo на 1 мм рт.ст.).